TimeCDT,TemperatureF,Dew PointF,Humidity,Sea Level PressureIn,VisibilityMPH,Wind Direction,Wind SpeedMPH,Gust SpeedMPH,PrecipitationIn,Events,Conditions,WindDirDegrees,DateUTC
12:53 AM,63.0,54.0,72,29.76,10.0,North,4.6,-,N/A,,Overcast,350,2013-03-23 05:53:00
1:53 AM,61.0,54.0,78,29.75,9.0,North,8.1,-,N/A,,Overcast,360,2013-03-23 06:53:00
2:53 AM,60.1,53.1,78,29.74,7.0,NNE,6.9,-,N/A,,Overcast,30,2013-03-23 07:53:00
3:53 AM,59.0,53.1,81,29.73,7.0,North,5.8,-,N/A,,Overcast,360,2013-03-23 08:53:00
4:09 AM,57.2,53.6,88,29.73,6.0,North,4.6,-,0.00,Rain,Light Rain,360,2013-03-23 09:09:00
4:53 AM,57.9,53.1,84,29.73,5.0,North,8.1,-,0.00,,Haze,360,2013-03-23 09:53:00
5:53 AM,57.0,52.0,83,29.73,5.0,NNE,4.6,-,N/A,,Haze,20,2013-03-23 10:53:00
6:53 AM,57.0,52.0,83,29.76,4.0,North,5.8,-,0.00,Rain,Light Rain,10,2013-03-23 11:53:00
7:38 AM,55.4,51.8,88,29.78,3.0,North,3.5,-,0.00,,Overcast,10,2013-03-23 12:38:00
7:48 AM,55.4,51.8,88,29.79,2.0,North,4.6,-,0.00,,Overcast,10,2013-03-23 12:48:00
7:53 AM,55.9,52.0,87,29.78,1.8,North,4.6,-,0.00,,Overcast,10,2013-03-23 12:53:00
8:39 AM,55.4,51.8,88,29.80,2.0,North,6.9,-,0.00,Rain,Light Rain,350,2013-03-23 13:39:00
8:53 AM,55.9,52.0,87,29.79,2.0,NNE,8.1,-,0.00,,Overcast,30,2013-03-23 13:53:00
9:40 AM,55.4,51.8,88,29.80,3.0,NE,5.8,-,0.00,,Overcast,40,2013-03-23 14:40:00
9:53 AM,55.9,52.0,87,29.79,3.0,NNE,5.8,-,0.00,,Overcast,20,2013-03-23 14:53:00
10:53 AM,55.9,52.0,87,29.78,4.0,NNE,6.9,-,N/A,,Overcast,30,2013-03-23 15:53:00
11:14 AM,57.2,51.8,82,29.78,6.0,NE,5.8,-,N/A,,Haze,40,2013-03-23 16:14:00
11:53 AM,57.0,52.0,83,29.77,6.0,ENE,5.8,-,N/A,,Haze,70,2013-03-23 16:53:00
12:53 PM,60.1,53.1,78,29.73,7.0,NNE,5.8,-,N/A,,Overcast,30,2013-03-23 17:53:00
1:53 PM,62.1,54.0,75,29.70,8.0,NNE,4.6,-,N/A,,Overcast,20,2013-03-23 18:53:00
2:53 PM,61.0,54.0,78,29.67,7.0,East,5.8,-,N/A,,Overcast,80,2013-03-23 19:53:00
3:17 PM,62.6,55.4,77,29.66,6.0,East,5.8,-,N/A,,Haze,80,2013-03-23 20:17:00
3:53 PM,63.0,55.0,75,29.64,6.0,Calm,Calm,-,N/A,,Haze,0,2013-03-23 20:53:00
4:01 PM,64.4,55.4,73,29.64,7.0,Calm,Calm,-,N/A,,Overcast,0,2013-03-23 21:01:00
4:05 PM,62.6,55.4,77,29.64,7.0,Calm,Calm,-,N/A,,Overcast,0,2013-03-23 21:05:00
4:53 PM,64.9,55.9,73,29.62,7.0,Calm,Calm,-,N/A,,Overcast,0,2013-03-23 21:53:00
5:53 PM,66.0,57.0,73,29.62,7.0,Calm,Calm,-,N/A,,Overcast,0,2013-03-23 22:53:00
6:08 PM,66.2,57.2,73,29.63,7.0,NNW,5.8,-,N/A,,Overcast,340,2013-03-23 23:08:00
6:53 PM,64.0,57.0,78,29.64,7.0,NNW,4.6,-,N/A,,Overcast,340,2013-03-23 23:53:00
7:16 PM,64.4,55.4,73,29.65,7.0,North,4.6,-,N/A,,Overcast,350,2013-03-24 00:16:00
8:53 PM,60.1,54.0,80,29.68,8.0,North,6.9,-,N/A,,Overcast,10,2013-03-24 01:53:00
9:28 PM,60.8,53.6,77,29.69,7.0,North,6.9,-,N/A,,Overcast,10,2013-03-24 02:28:00
9:53 PM,59.0,54.0,83,29.68,7.0,NNE,5.8,-,N/A,,Overcast,20,2013-03-24 02:53:00
10:53 PM,59.0,54.0,83,29.68,6.0,ENE,4.6,-,N/A,,Haze,70,2013-03-24 03:53:00
11:01 PM,59.0,53.6,82,29.68,7.0,East,4.6,-,N/A,,Overcast,80,2013-03-24 04:01:00
11:28 PM,59.0,53.6,82,29.69,7.0,ENE,3.5,-,N/A,,Overcast,70,2013-03-24 04:28:00
11:53 PM,59.0,54.0,83,29.69,8.0,Calm,Calm,-,N/A,,Overcast,0,2013-03-24 04:53:00